"Pseudo-MPEC" for ZK17266

Created 2018 May 19 18:18:17 UT using Find_Orb

Click here for an explanation of pseudo-MPECs

 
 Astrometry: 
     ZK17266  C2018 05 16.33987 14 50 58.84 -12 20 35.8          19.0 GUNEOCP703
     ZK17266  C2018 05 16.34514 14 51 04.49 -12 19 26.3          18.8 GUNEOCP703
     ZK17266  C2018 05 16.35040 14 51 09.99 -12 18 17.2          18.6 GUNEOCP703
     ZK17266  C2018 05 16.35566 14 51 15.54 -12 17 07.5          19.0 GUNEOCP703
     ZK17266  C2018 05 1691Astrometry`@^q)NI]wd\XU;57h'+='4Nv;lE.#+N;W2iZIgD`H01
     ZK17266  C2018 05 16.38335 14 51 45.00 -12 11 01.2          18.6 GUNEOCPI52
     ZK17266  C2018 05 16.38376 14 51 45.44 -12 10 55.8          18.5 GUNEOCPI52
     ZK17266  C2018 05 16.38418 14 51 45.90 -12 10 50.1          18.6 GUNEOCPI52
     ZK17266  C2018 05 16.38459 14 51 46.34 -12 10 44.4          18.6 GUNEOCPI52
     ZK17266  C2018 05 16G;bk,+M8HTLwVl#G-)vd;eDdRBJx?CLGpJKDG[!m^HG?/P;skZq0H01
     ZK17266  C2018 05 16g94A7T][Z_QR/v08w#v$o/Ud]ETd2nyS_-jtg)Ls8(o@GYqG^@09H01
     ZK17266  C2018 05 16.39717 14 51 59.82 -12 07 56.9          18.4 GUNEOCPI52
     ZK17266  C2018 05 16.39758 14 52 00.26 -12 07 51.4          18.5 GUNEOCPI52
     ZK17266  C2018 05 16.39799 14 52 00.71 -12 07 45.6          18.7 GUNEOCPI52
     ZK17266  C2018 05 16.39841 14 52 01.15 -12 07 40.5          18.4 GUNEOCPI52
     ZK17266  C2018 05 16+mm*XJWI/m*+w0XilMl3N%^Oc$:Vc-Jmc\c39fwWZ[1ktT]!J*bYH01
     ZK17266 KC2018 05 16CgMP[$xx`a2SNcdbDZMi.'c(Qm.m'+ZT+eicch#$TVRqtn;TA^bIL01
     ZK17266 KC2018 05 16dL+o?mcxwU^xG%f%^t[jk0_`dZDM]cSh2L5uM4M\riZsI!x-O4QAL01
     ZK17266 KC2018 05 16D6'.q5.iBwUo2+vXXr!lF$GDewX=rVSSe$YT3wdXFPcBQuT#v#!HL01
     ZK17266 KC2018 05 16.98252 15 03 40.76 -09 52 51.1                VNEOCPJ95
     ZK17266 KC2018 05 16.98451 15 03 43.09 -09 52 21.7                VNEOCPJ95
     ZK17266 KC2018 05 16.98651 15 03 45.40 -09 51 52.0                VNEOCPJ95
     ZK17266 KC2018 05 16.98847 15 03 47.69 -09 51 22.7          19.0 GVNEOCPJ95
     ZK17266 (C2018 05 17HfyZ)q77$Vo8d\:;FLaQi)(]_o8cJ:ej9ytdjeh4equ=!hHEK*ccG40
     ZK17266 (C2018 05 17j2!-\;rMTK!rf:A'qpbiK*kpUv4@FsM)4y0BJ1:fw/]Q*#F%07v@G40
     ZK17266  C2018 05 17gd8-d2ZGF3WC8h7$?F;KPZN*`N0K?`k-J):4;O6bm_\PY!wtLM.TH01
     ZK17266  C2018 05 172o\Bt(ec,H#t,04I$M#:#6;1B(?P:h36bir'R$*/xHpc\?AcB[fYH01
     ZK17266  C2018 05 17PADL#=#q`j-3%*?]4(56xxL=?5:TUM+vKWyB4J($W+76i0sW9cm7H01
     ZK17266  C2018 05 17a?/[.#5cPt:URmwfEOe6@.Gme`V2wr+,S9/BV9=pnodF5\LZ1kqQH01
     ZK17266  C2018 05 17.23853 15 09 06.06 -08 47 48.3          18.5 GUNEOCPI52
     ZK17266  C2018 05 17.23865 15 09 06.22 -08 47 46.8          18.4 GUNEOCPI52
     ZK17266  C2018 05 17.23877 15 09 06.36 -08 47 45.3          18.6 GUNEOCPI52
     ZK17266  C2018 05 17.23890 15 09 06.54 -08 47 43.4          18.4 GUNEOCPI52
     ZK17266 KC2018 05 17yrEX!PUM[t%#*s@!AiegXGm92^dd7\cUn_#l@?LnyOyroTm8?[q@E08
     ZK17266 KC2018 05 17Nd,g(J$342,MiRn/$bTo4#I'pBbA7+IXgs6+a$qmR`EI#eW2y5['E08
     ZK17266  C2018 05 17.44103 15 13 13.06 -07 54 45.0          17.9 GUNEOCPI52
     ZK17266  C2018 05 17.44116 15 13 13.22 -07 54 43.5          18.4 GUNEOCPI52
     ZK17266  C2018 05 17.44128 15 13 13.39 -07 54 42.3          18.6 GUNEOCPI52
     ZK17266  C2018 05 17.44141 15 13 13.52 -07 54 39.5          18.7 GUNEOCPI52
     ZK17266 KC2018 05 17_XCt41ClR=)7X-bK_J_LMV7_BkNWL35o90*$SPVJ3G(A/-Z1Wt7_E23
     ZK17266 KC2018 05 17*OxLtL)F9?;,Oy0\P@-=g5^PCsaTGymQ(kWq`0Y=bqE!RAAWq*3ME23
     ZK17266 KC2018 05 17Q2@\nf9p]SrngidO:Et;E4gk8@uKG7h+T/Uk'_)q$Y1I-'H4;i6`E23
     ZK17266 KC2018 05 17\05-X;EW*.@`y\g9fredacted;8qy$t,+B@f0`Huu/-jT-!9;AynA17
     ZK17266 KC2018 05 17#f-CYXB]ROhuIh;4(c/#rG'#H@rCsfF9NDr,fU_;w4??OSGlb$XK160
     ZK17266 KC2018 05 17y[MsSpl?q`G;XT'hmwe[+0oRV11ti\tJdm#Z:v+DFXR(FE%fZAqD160
     ZK17266 KC2018 05 17j#!4NjKHn5pqIdGUdk!vw)wvbcV]4M7(L)LQ+@f!kie9D)^6]#2F160
     ZK17266 KC2018 05 17@i]TC1kxmq'tH2:hh`X-SV7kV=':t:::]Qn_X01_*YLx:^ZGk6^]A17
     ZK17266 KC2018 05 17GUd;OX/C;`7v#QT3bnqu@oQ4.1[yt\I)!3YMVO3H%6y3#;'tj!DB160
     ZK17266 KC2018 05 175R-K+/EB2NCPaV#r+k@0'?x_4%YX[Wp/bA;K@]^oZh06F(B7H,rA160
     ZK17266 KC2018 05 17^W/dkBEHvoX^kM01dHD6k4\M0sPqlKUI5?nW=ShO8YHj@pK`pRCCA17
     ZK17266 KC2018 05 17cpsZby5f4/Zk'QDo6((8sbx@Inslk\?%+ER:Ywv1uk72NtJGv3y=A17
     ZK17266 KC2018 05 176G6\8LxWBWOM'B6XGTc8f72j8cW7Zm^JOQvN.r+8EbsAxR_y,#7LK87
     ZK17266 KC2018 05 17:$SgNDGA]KK4GSvs84.:R`SQFVCrqGh$hHi8_:cs;p4T^,/lFa,TK87
     ZK17266  C2018 05 17.90709 15 23 58.48 -05 47 06.9          18.9 VSNEOCP033
     ZK17266  C2018 05 17.90782 15 23 59.47 -05 46 54.2          18.8 VSNEOCP033
     ZK17266 KC2018 05 17mR06$[7m9YcH!!uW4EEi)QRvRm(,:5p*9RA`EJa%cD8OX]t!fL-XK87
     ZK17266  C2018 05 17.90855 15 24 00.44 -05 46 41.6          18.5 VSNEOCP033
     ZK17266 KC2018 05 17.96817 15 25 22.51 -05 29 33.6                VNEOCPJ95
     ZK17266 KC2018 05 17.97320 15 25 29.30 -05 28 06.5          19.1 GVNEOCPJ95
     ZK17266  C2018 05 17.99356 15 25 54.30 -05 22 10.5          19.4 VSNEOCP033
     ZK17266  C2018 05 17.99429 15 25 55.28 -05 21 58.0          18.2 VSNEOCP033
     ZK17266 KC2018 05 18!ydo4ZMfu42v^MR=6q;(NeuO,!7Yl!wa5Wacx]wd357e,(6H0kvPJ77
     ZK17266 KC2018 05 18f%6g8.:wJOT1l,HCp52bU?jkgT\c^BtC_3CG'@qVO]#5_F,uYHPxJ77
     ZK17266 KC2018 05 188u?F2\+4$YX=lUeMP6*%Ma:3-.@H^:Y7;ksFZx%loLGZywK]VxDKJ77
     ZK17266 KC2018 05 18e,KsLN1EBE\]jV)J.c#i8BocL;$w'0T7*f\M10!Nn\1v:nRBdojdJ77
     ZK17266 KC2018 05 18'Akkw((@UQ7?,e3fHD=bx1nAucw?MX`sJ^M,fm%ux:^'(K)hE%S9J77
     ZK17266 KC2018 05 18OVwH^V/1Zm^@3+Eb)aAC^lLe4LjhejqvA?4w(E1O]RBw$K9[l\?9J77
     ZK17266 KC2018 05 18b^'4NITrtP:nkv=#/Bv,GGy(m5!`x`h2seehk@afJUZh0+W6_fY[J77
     ZK17266 KC2018 05 18M\Lb*b=j:#2F$G-Dq$:4Et%_`^@gW:ZaVw+pUvUvCb@oXx/Nf.kmJ77
     ZK17266 KC2018 05 18=)h*!ED[`3kJBcGw9j93_K1HyRWCJs'l#(7QVQw'M`NJTr=g2hSZJ77
     ZK17266  C2018 05 18.37101 15 34 56.40 -03 28 28.4          18.4 GUNEOCPI52
     ZK17266  C2018 05 18.37114 15 34 56.59 -03 28 25.7          18.1 GUNEOCPI52
     ZK17266  C2018 05 18.37126 15 34 56.75 -03 28 23.7          18.1 GUNEOCPI52
     ZK17266  C2018 05 18.37139 15 34 56.92 -03 28 21.1          18.2 GUNEOCPI52
     ZK17266 KC2018 05 18g+kC(/.@lv0+R;(YhCa8wZUlCqdr.+h$nPx`*tJ6Mer`S;HEl(T1595
     ZK17266 KC2018 05 18NQ\._$DH(ly'-]UWs(Cliva7B.sP?G(!/D:jH88*_kelOA##FHlw595
     ZK17266 KC2018 05 180]sVI7WQlAua1wSI\8o!^xBb.Il_3*X+:(vL3Bmc)$:7'v)PxhNt595
     ZK17266 KC2018 05 18POt8RAR?%0$?lTEvlCZJ]qR4T\fB1`L:5?l0qe5[i.NCT.sFQSqhK41
     ZK17266 KC2018 05 18$#Y_hUJO(d!VNru=SdK[aYC[NhQ=m.?mb[rkc\/dm76hTD-YYn9#K41
     ZK17266 (C2018 05 18)s+LJH?XBy%*ZwuxZ^'uSo)QVb0%!3.t?ZDASV=R6Gggve!Z'(/4G40
     ZK17266 (C2018 05 18x8eT!vYcBQ\VOXd,upvC]cse.*m=rE0^T1Z3gw/Z@H8*T3*08m^:G40
     ZK17266 KC2018 05 18XlxLcqqs/K*C9L@DTBlFL4'*D?x\30N2\8].1F3piv/)@KgdRgx3L01
     ZK17266 KC2018 05 18LwR$Y?4.+qBYehl[WMWAVR_[?#g,2S,62Kt1vNTU:B!uTN-O^_4tL01
     ZK17266 KC2018 05 18$k;dGwg3(8an46HCPDE%RM2'fKo:OaUn.KE/N2v0K7$9M]W%\]WcL01
     ZK17266 KC2018 05 18I_Ou.CJoyrXJ=ARP=cUTAn\HQ9'3v^wFwu`JEU#rgM5.Z?KwtZriL01
     ZK17266 KC2018 05 18ptt/!b`:_`7?[QCZ-FRtNB].a._\BW%8RySabm_t]6=qwdJLlF/TL01
     ZK17266 KC2018 05 18-q9CnJH`Hb0c$Wdp^=aU58s9de_M?Fy2jG78-9:p#$N5BU+ZLFiaL01
     ZK17266 |C2018 05 19_cT#(m+:*4*QKv8?k.vo]1klq%=nZWh`\1bPoP4V08OU!KJ8]o^T807
     ZK17266 |C2018 05 19tqi6NF%.`;skhS%BciZ8E5cIM?e.mhZ\X.]7pwRiC1-SpFgbEW%H807
     ZK17266 |C2018 05 19^AJ45lHKJ0.b`:o`8Gn3=nU%92*Jd]tSrf!x72`S8Fmb,_BNEOCP807
     ZK17266  C2018 05 19.33226 16 00 06.11 +01 44 39.9          18.5 GUNEOCPI52
     ZK17266  C2018 05 19.33238 16 00 06.31 +01 44 42.9          18.2 GUNEOCPI52
     ZK17266  C2018 05 19.33251 16 00 06.51 +01 44 45.7          18.1 GUNEOCPI52
     ZK17266  C2018 05 19.33263 16 00 06.71 +01 44 48.3          18.2 GUNEOCPI52

Station data:
(033) Karl Schwarzschild Observatory, Tautenburg  (N50.980140 E11.711240)
   Germany. 1.3-m Schmidt.
(160) Castelmartini  (N43.823061 E10.841440)  Italy.
(595) Farra d'Isonzo  (N45.915734 E13.525780)  Italy.  Observers L.
   Bittesini, F. Fabris, E. Pettarin, F. Piani. Measurer E. Pettarin. 0.30-m
   f/4.5 reflector + CCD.
(703) Catalina Sky Survey  (N32.417006 W110.732640)  US/Arizona.  Observers
   E. J. Christensen, A. R. Gibbs, A. D. Grauer, R. E. Hill, J. A. Johnson,
   R. A. Kowalski, S. M. Larson, F. C. Shelly. 0.68 m Schmidt + CCD.
(807) Cerro Tololo Observatory, La Serena  (S30.169136 W70.805900)  Chile.
   Observers M. Holman, J. Kavelaars, T. Grav, W. Fraser. Measurer M. Holman.
   4-m Blanco reflector + CCD.
(A17) Guidestar Observatory, Weinheim  (N49.545393 E8.681520)  Germany.
(E08) Wobblesock Observatory, Coonabarabran  (S31.226991 E149.334310)
   Australia/NSW.
(E23) Arcadia  (S33.621199 E151.071190)  Australia/NSW.
(G40) Slooh.com Canary Islands Observatory  (N28.299720 W16.508260)  Canary
   Islands (Spain).  Observers G. Gašparović, Y. Chen. 0.43-m f/6.8 Corrected
   Dall-Kirkham + CCD.
(H01) Magdalena Ridge Observatory, Socorro  (N33.985151 W107.189200)  US/New
   Mexico.  Observers W. H. Ryan, E. V. Ryan. Measurer W. H. Ryan. 2.4-m
   f/8.9 reflector + CCD.
(I52) Steward Observatory, Mt. Lemmon Station  (N32.442547 W110.788920)
   US/Arizona.
(J77) Golden Hill Observatory, Stourton Caundle  (N50.930949 W2.405300)  UK.
   Observer R. Miles. 0.28-m f/10 Schmidt-Cassegrain + CCD.
(J95) Great Shefford  (N51.474970 W1.447000)  UK.  Observer P. Birtwhistle.
   0.40-m f/6.0 Schmidt-Cassegrain + CCD.
(K41) Vegaquattro Astronomical Obs., Novi Ligure  (N44.771183 E8.793000)
   Italy.
(K87) Dettelbach Vineyard Observatory  (N49.807693 E10.170110)  Germany.
(L01) Višnjan Observatory, Tičan  (N45.290900 E13.749300)  Croatia.

Orbital elements:  ZK17266
   Perihelion 2018 Jun 7.692389 +/- 0.00135 TT = 16:37:02 (JD 2458277.192389)
Epoch 2018 May 19.0 TT = JDT 2458257.5   Earth MOID: 0.0305   AutoNEOCP
M 353.29854 +/- 0.006               (J2000 ecliptic)
n   0.34030692 +/- 0.000302         Peri.   26.75731 +/- 0.0011
a   2.03183698 +/- 0.0012           Node   233.78387 +/- 0.00023
e   0.5002205 +/- 0.000294          Incl.    8.90437 +/- 0.0036
P   2.90                   H 25.3   G  0.15   U  7.3  
q 1.01547029 +/- 3.41e-6    Q 3.04820367 +/- 0.0024
From 94 observations 2018 May 16-19; mean residual 0".36
Residuals in arcseconds: 
180516 703  .87-  .53+    180517 I52  .05+  .36-    180518 J77  .09-  .39+    
180516 703  .62+  .67+    180517 E08  .63-  .54-    180518 J77  .02-  .58+    
180516 703  .07-  .44+    180517 E08  .14-  .22+    180518 J77  .73-  .36+    
180516 703  .18-  .69+    180517 I52  .01-  .21+    180518 J77  .60-  .31-    
180516 H01  .10+  .08-    180517 I52  .07-  .38-    180518 J77  .40+  .18+    
180516 I52  .07-  .18-    180517 I52  .21+  1.1-    180518 J77  .49+  .09-    
180516 I52  .04-  .23-    180517 I52  .30-  .40-    180518 I52  .06-  .17-    
180516 I52  .11+  .13-    180517 E23  .10-  .11-    180518 I52  .07+  .13+    
180516 I52  .14+  .11+    180517 E23  .04+  .70+    180518 I52  .05-  .08-    
180516 H01  .11+  .09-    180517 E23  .09-  .37+    180518 I52  .23-  .12+    
180516 H01  .10-  .14-    180517 A17  .37+  .02-    180518 595  .06-  .35+    
180516 I52  .08-  .23-    180517 160  .28+  .09+    180518 595  .01-  .48+    
180516 I52  .10-  .21-    180517 160  1.0-  .44-    180518 595  .11-  .59+    
180516 I52  .03+  .11+    180517 160  .63-  .09-    180518 K41  .79+  .74-    
180516 I52  .15-  .40-    180517 A17  .79+  .74-    180518 K41  .70+  .76+    
180516 H01  .15+  .07-    180517 160  .16-  .38-    180518 G40  .34-  .26-    
180516 L01  .23+  .68-    180517 160  .12+  .01-    180518 G40  .57+  1.0+    
180516 L01  .29+  .74+    180517 A17  .34+  .25+    180518 L01  .22-  .04+    
180516 L01  .25-  .37-    180517 A17  .38+  .50-    180518 L01  .07-  .31-    
180516 J95  .36+  .45-    180517 K87  .36+  .69+    180518 L01  .08-  .46-    
180516 J95  .33+  .32-    180517 K87  .03-  .72+    180518 L01  .17-  .33-    
180516 J95  .17-  .05-    180517 033  .15+  .02+    180518 L01  .02-  .39-    
180516 J95  .29-  .39+    180517 033  .39+  .19+    180518 L01  .55-  .16-    
180517 G40  .11-  .24+    180517 K87  .38+  .47+    180519 807  .27-  .18-    
180517 G40  .01-  .06-    180517 033  .33+  .26+    180519 807  .24-  .33-    
180517 H01  .13-  .12-    180517 J95  .51-  .04-    180519 807  .14-  .39-    
180517 H01  .10-  .01-    180517 J95  .03-  .20-    180519 I52  .25-  .57-    
180517 H01  .00   .10-    180517 033  .27+  .09+    180519 I52  .05-  .04-    
180517 H01  .08-  .09-    180517 033  .22+  .15-    180519 I52  .08-  .09+    
180517 I52  .50-  .41+    180518 J77  .04+  .20-    180519 I52  .12+  .22+    
180517 I52  .26-  .07+    180518 J77  .07+  .18-    
180517 I52  .31-  .27-    180518 J77  .23+  .00     

Ephemerides (geocentric):
Date (UTC) HH   RA              Dec         delta   r     elong  mag " sig PA
---- -- -- --  ------------   ------------  ------ ------ -----  --- ---- ---
2018 05 19 18  16 11 50.980   +04 12 26.61  .03179 1.0407 155.1 19.0  .07 163
2018 05 19 19  16 13 02.666   +04 27 11.24  .03174 1.0406 154.8 19.0  .07 164
2018 05 19 20  16 14 14.620   +04 41 58.03  .03169 1.0405 154.5 19.0  .08 165
2018 05 19 21  16 15 26.840   +04 56 46.90  .03165 1.0404 154.1 19.0  .08 165
2018 05 19 22  16 16 39.322   +05 11 37.74  .03160 1.0403 153.8 19.1  .08 166
2018 05 19 23  16 17 52.064   +05 26 30.45  .03156 1.0402 153.5 19.1  .08 167
2018 05 20 00  16 19 05.064   +05 41 24.93  .03151 1.0400 153.2 19.1  .08 168
2018 05 20 01  16 20 18.317   +05 56 21.06  .03147 1.0399 152.8 19.1  .08 169
2018 05 20 02  16 21 31.821   +06 11 18.74  .03144 1.0398 152.5 19.1  .08 170
2018 05 20 03  16 22 45.574   +06 26 17.87  .03140 1.0397 152.2 19.1  .08 171
2018 05 20 04  16 23 59.571   +06 41 18.32  .03136 1.0396 151.9 19.1  .08 172
2018 05 20 05  16 25 13.810   +06 56 19.99  .03133 1.0395 151.5 19.1  .08 173
2018 05 20 06  16 26 28.288   +07 11 22.77  .03129 1.0394 151.2 19.1  .08 175
2018 05 20 07  16 27 43.000   +07 26 26.54  .03126 1.0393 150.9 19.1  .08 176
2018 05 20 08  16 28 57.943   +07 41 31.18  .03123 1.0392 150.5 19.1  .08 177
2018 05 20 09  16 30 13.115   +07 56 36.57  .03120 1.0391 150.2 19.1  .08 178
2018 05 20 10  16 31 28.511   +08 11 42.61  .03118 1.0390 149.8 19.1  .08 179
2018 05 20 11  16 32 44.127   +08 26 49.16  .03115 1.0389 149.5 19.1  .08   1
2018 05 20 12  16 33 59.960   +08 41 56.12  .03113 1.0388 149.2 19.1  .08   2
2018 05 20 13  16 35 16.006   +08 57 03.35  .03110 1.0387 148.8 19.2  .08   3
2018 05 20 14  16 36 32.261   +09 12 10.74  .03108 1.0386 148.5 19.2  .09   4
2018 05 20 15  16 37 48.721   +09 27 18.17  .03106 1.0385 148.1 19.2  .09   6
2018 05 20 16  16 39 05.382   +09 42 25.52  .03105 1.0384 147.8 19.2  .09   7
2018 05 20 17  16 40 22.239   +09 57 32.65  .03103 1.0383 147.4 19.2  .09   8
2018 05 20 18  16 41 39.290   +10 12 39.45  .03102 1.0381 147.1 19.2  .09   9
2018 05 20 19  16 42 56.528   +10 27 45.79  .03100 1.0380 146.7 19.2  .09  11
2018 05 20 20  16 44 13.951   +10 42 51.55  .03099 1.0379 146.4 19.2  .09  12
2018 05 20 21  16 45 31.553   +10 57 56.61  .03098 1.0378 146.0 19.2  .09  13
2018 05 20 22  16 46 49.330   +11 13 00.84  .03097 1.0377 145.7 19.2  .10  14
2018 05 20 23  16 48 07.277   +11 28 04.11  .03097 1.0376 145.3 19.2  .10  16
2018 05 21 00  16 49 25.391   +11 43 06.31  .03096 1.0375 145.0 19.2  .10  17
2018 05 21 01  16 50 43.666   +11 58 07.30  .03096 1.0374 144.6 19.3  .10  18
2018 05 21 02  16 52 02.097   +12 13 06.96  .03096 1.0373 144.3 19.3  .10  19
2018 05 21 03  16 53 20.680   +12 28 05.18  .03096 1.0372 143.9 19.3  .10  20
2018 05 21 04  16 54 39.410   +12 43 01.82  .03096 1.0371 143.6 19.3  .11  22
2018 05 21 05  16 55 58.282   +12 57 56.77  .03096 1.0370 143.2 19.3  .11  23
2018 05 21 06  16 57 17.290   +13 12 49.90  .03096 1.0369 142.9 19.3  .11  24
2018 05 21 07  16 58 36.431   +13 27 41.09  .03097 1.0368 142.5 19.3  .11  25
2018 05 21 08  16 59 55.699   +13 42 30.22  .03098 1.0367 142.2 19.3  .12  26
2018 05 21 09  17 01 15.089   +13 57 17.17  .03099 1.0366 141.8 19.3  .12  27
2018 05 21 10  17 02 34.595   +14 12 01.82  .03100 1.0365 141.5 19.3  .12  28
2018 05 21 11  17 03 54.213   +14 26 44.06  .03101 1.0364 141.1 19.4  .12  29
2018 05 21 12  17 05 13.937   +14 41 23.76  .03102 1.0363 140.7 19.4  .13  30
2018 05 21 13  17 06 33.762   +14 56 00.81  .03104 1.0362 140.4 19.4  .13  31
2018 05 21 14  17 07 53.683   +15 10 35.10  .03105 1.0361 140.0 19.4  .13  32
2018 05 21 15  17 09 13.694   +15 25 06.51  .03107 1.0360 139.7 19.4  .13  33
2018 05 21 16  17 10 33.789   +15 39 34.93  .03109 1.0359 139.3 19.4  .14  34
2018 05 21 17  17 11 53.965   +15 54 00.26  .03111 1.0358 139.0 19.4  .14  34